TimeMST,TemperatureF,Dew PointF,Humidity,Sea Level PressureIn,VisibilityMPH,Wind Direction,Wind SpeedMPH,Gust SpeedMPH,PrecipitationIn,Events,Conditions,WindDirDegrees,DateUTC
12:01 AM,23.0,8.6,54,30.46,10.0,WNW,5.8,-,N/A,,Clear,290,2013-11-07 07:01:00
12:21 AM,21.2,8.6,58,30.47,10.0,West,8.1,-,N/A,,Clear,270,2013-11-07 07:21:00
12:41 AM,21.2,8.6,58,30.47,10.0,West,6.9,-,N/A,,Clear,270,2013-11-07 07:41:00
1:01 AM,21.2,8.6,58,30.47,10.0,West,4.6,-,N/A,,Clear,260,2013-11-07 08:01:00
1:21 AM,21.2,8.6,58,30.47,10.0,West,5.8,-,N/A,,Clear,260,2013-11-07 08:21:00
1:40 AM,21.2,8.6,58,30.46,10.0,WSW,6.9,-,N/A,,Clear,250,2013-11-07 08:40:00
2:01 AM,23.0,8.6,54,30.47,10.0,West,8.1,-,N/A,,Clear,260,2013-11-07 09:01:00
2:21 AM,23.0,8.6,54,30.47,10.0,West,10.4,-,N/A,,Clear,280,2013-11-07 09:21:00
2:41 AM,23.0,8.6,54,30.47,10.0,WNW,9.2,17.3,N/A,,Clear,290,2013-11-07 09:41:00
3:01 AM,23.0,8.6,54,30.47,10.0,WNW,5.8,-,N/A,,Clear,290,2013-11-07 10:01:00
3:20 AM,23.0,8.6,54,30.47,10.0,West,4.6,-,N/A,,Clear,280,2013-11-07 10:20:00
3:41 AM,23.0,10.4,59,30.48,10.0,West,6.9,-,N/A,,Clear,260,2013-11-07 10:41:00
4:01 AM,23.0,10.4,59,30.48,10.0,West,8.1,-,N/A,,Clear,260,2013-11-07 11:01:00
4:21 AM,23.0,10.4,59,30.48,10.0,WSW,6.9,-,N/A,,Clear,240,2013-11-07 11:21:00
4:40 AM,23.0,10.4,59,30.48,10.0,SW,5.8,-,N/A,,Clear,230,2013-11-07 11:40:00
5:01 AM,23.0,10.4,59,30.49,10.0,WSW,4.6,-,N/A,,Clear,240,2013-11-07 12:01:00
5:21 AM,23.0,10.4,59,30.49,10.0,WSW,5.8,-,N/A,,Clear,240,2013-11-07 12:21:00
5:41 AM,23.0,10.4,59,30.49,10.0,WSW,5.8,-,N/A,,Clear,240,2013-11-07 12:41:00
6:01 AM,23.0,10.4,59,30.50,10.0,SW,8.1,-,N/A,,Clear,230,2013-11-07 13:01:00
6:21 AM,23.0,12.2,63,30.50,10.0,SW,8.1,-,N/A,,Clear,230,2013-11-07 13:21:00
6:41 AM,23.0,12.2,63,30.50,10.0,SW,8.1,-,N/A,,Clear,230,2013-11-07 13:41:00
7:01 AM,23.0,12.2,63,30.50,10.0,WSW,9.2,-,N/A,,Clear,240,2013-11-07 14:01:00
7:21 AM,23.0,12.2,63,30.50,10.0,WSW,9.2,17.3,N/A,,Scattered Clouds,240,2013-11-07 14:21:00
7:41 AM,23.0,12.2,63,30.51,10.0,SW,9.2,-,N/A,,Scattered Clouds,230,2013-11-07 14:41:00
8:01 AM,24.8,12.2,59,30.51,10.0,SW,9.2,19.6,N/A,,Clear,220,2013-11-07 15:01:00
8:21 AM,26.6,12.2,55,30.52,10.0,SW,10.4,17.3,N/A,,Clear,220,2013-11-07 15:21:00
8:41 AM,26.6,12.2,55,30.51,10.0,SW,10.4,17.3,N/A,,Clear,230,2013-11-07 15:41:00
9:01 AM,30.2,14.0,51,30.51,10.0,SW,11.5,17.3,N/A,,Clear,230,2013-11-07 16:01:00
9:21 AM,30.2,14.0,51,30.51,10.0,SW,10.4,16.1,N/A,,Clear,220,2013-11-07 16:21:00
9:41 AM,32.0,14.0,48,30.52,10.0,SSW,8.1,-,N/A,,Clear,210,2013-11-07 16:41:00
10:01 AM,33.8,14.0,44,30.52,10.0,SSW,9.2,-,N/A,,Clear,200,2013-11-07 17:01:00
10:20 AM,35.6,14.0,41,30.52,10.0,SSW,6.9,-,N/A,,Clear,210,2013-11-07 17:20:00
10:41 AM,37.4,14.0,38,30.51,10.0,SSW,9.2,16.1,N/A,,Clear,200,2013-11-07 17:41:00
11:01 AM,37.4,14.0,38,30.50,10.0,SSW,6.9,-,N/A,,Clear,210,2013-11-07 18:01:00
11:20 AM,41.0,14.0,33,30.50,10.0,SSW,10.4,16.1,N/A,,Clear,210,2013-11-07 18:20:00
11:41 AM,41.0,14.0,33,30.49,10.0,SSW,6.9,16.1,N/A,,Clear,200,2013-11-07 18:41:00
12:01 PM,41.0,14.0,33,30.49,10.0,SW,5.8,-,N/A,,Clear,220,2013-11-07 19:01:00
12:21 PM,41.0,12.2,31,30.48,10.0,SSW,5.8,-,N/A,,Clear,210,2013-11-07 19:21:00
12:41 PM,42.8,14.0,31,30.47,10.0,SSW,6.9,-,N/A,,Clear,200,2013-11-07 19:41:00
1:01 PM,42.8,12.2,29,30.46,10.0,SSW,6.9,-,N/A,,Clear,210,2013-11-07 20:01:00
1:21 PM,42.8,12.2,29,30.45,10.0,SSW,5.8,-,N/A,,Clear,200,2013-11-07 20:21:00
1:41 PM,44.6,14.0,29,30.45,10.0,SW,8.1,-,N/A,,Clear,220,2013-11-07 20:41:00
2:01 PM,41.0,14.0,33,30.45,10.0,SSW,8.1,-,N/A,,Clear,200,2013-11-07 21:01:00
2:21 PM,41.0,12.2,31,30.44,10.0,SSW,5.8,-,N/A,,Clear,210,2013-11-07 21:21:00
2:41 PM,41.0,14.0,33,30.43,10.0,SSW,8.1,-,N/A,,Clear,210,2013-11-07 21:41:00
3:01 PM,41.0,12.2,31,30.43,10.0,SSW,8.1,-,N/A,,Clear,210,2013-11-07 22:01:00
3:21 PM,37.4,12.2,36,30.43,10.0,SSW,6.9,-,N/A,,Clear,200,2013-11-07 22:21:00
3:41 PM,37.4,12.2,36,30.43,10.0,SSW,8.1,-,N/A,,Clear,210,2013-11-07 22:41:00
4:01 PM,37.4,12.2,36,30.42,10.0,SSW,8.1,-,N/A,,Clear,200,2013-11-07 23:01:00
4:21 PM,35.6,10.4,35,30.41,10.0,SSW,6.9,-,N/A,,Clear,200,2013-11-07 23:21:00
4:41 PM,33.8,10.4,38,30.41,10.0,South,5.8,-,N/A,,Clear,190,2013-11-07 23:41:00
5:01 PM,33.8,10.4,38,30.40,10.0,SSW,5.8,-,N/A,,Clear,200,2013-11-08 00:01:00
5:21 PM,33.8,10.4,38,30.40,10.0,SSW,9.2,-,N/A,,Clear,210,2013-11-08 00:21:00
5:41 PM,32.0,10.4,41,30.40,10.0,SSW,9.2,-,N/A,,Clear,210,2013-11-08 00:41:00
6:01 PM,32.0,10.4,41,30.39,10.0,SSW,12.7,20.7,N/A,,Clear,210,2013-11-08 01:01:00
6:21 PM,32.0,10.4,41,30.38,10.0,SW,12.7,21.9,N/A,,Clear,220,2013-11-08 01:21:00
6:41 PM,32.0,10.4,41,30.37,10.0,SW,9.2,21.9,N/A,,Clear,220,2013-11-08 01:41:00
7:01 PM,32.0,10.4,41,30.37,10.0,SSW,10.4,17.3,N/A,,Clear,210,2013-11-08 02:01:00
7:21 PM,32.0,10.4,41,30.36,10.0,SW,12.7,21.9,N/A,,Clear,230,2013-11-08 02:21:00
7:41 PM,32.0,10.4,41,30.35,10.0,SW,16.1,24.2,N/A,,Clear,220,2013-11-08 02:41:00
8:01 PM,32.0,10.4,41,30.34,10.0,SW,13.8,23.0,N/A,,Clear,220,2013-11-08 03:01:00
8:21 PM,30.2,10.4,44,30.33,10.0,SW,13.8,26.5,N/A,,Clear,220,2013-11-08 03:21:00
8:41 PM,30.2,12.2,47,30.33,10.0,SW,13.8,20.7,N/A,,Clear,220,2013-11-08 03:41:00
9:01 PM,30.2,12.2,47,30.32,10.0,SW,17.3,25.3,N/A,,Clear,230,2013-11-08 04:01:00
9:20 PM,30.2,12.2,47,30.31,10.0,SW,15.0,25.3,N/A,,Clear,230,2013-11-08 04:20:00
9:41 PM,28.4,12.2,51,30.29,10.0,SW,17.3,25.3,N/A,,Clear,220,2013-11-08 04:41:00
10:01 PM,28.4,10.4,47,30.29,10.0,SW,17.3,25.3,N/A,,Clear,220,2013-11-08 05:01:00
10:21 PM,28.4,10.4,47,30.28,10.0,SW,17.3,28.8,N/A,,Clear,220,2013-11-08 05:21:00
10:40 PM,30.2,10.4,44,30.27,10.0,SW,17.3,28.8,N/A,,Clear,220,2013-11-08 05:40:00
11:01 PM,30.2,10.4,44,30.26,10.0,SW,17.3,32.2,N/A,,Clear,220,2013-11-08 06:01:00
11:21 PM,30.2,10.4,44,30.27,10.0,SW,18.4,26.5,N/A,,Clear,230,2013-11-08 06:21:00
11:42 PM,30.2,10.4,44,30.26,10.0,SW,16.1,26.5,N/A,,Clear,230,2013-11-08 06:42:00